SP2FH-13 Weather Reports


Display with metric or nautical units.
time (UTC)temp
F
wind
direction
speed
MPH
gust
MPH
rain 1hr
in
rain 24hr
in
rain mn
in
humidity
%
barometer
mb
20260508043517 45 300 1.0 2.0 0.00 0.00 0.00 89 1007.1
20260508043016 45 252 1.0 2.0 0.00 0.00 0.00 90 1007.0
20260508042514 45 324 1.0 2.0 0.00 0.00 0.00 89 1007.0
20260508042013 45 181 1.0 4.0 0.00 0.00 0.00 89 1007.0
20260508041512 45 300 0.0 2.0 0.00 0.00 0.00 89 1007.0
20260508041010 45 280 0.0 2.0 0.00 0.00 0.00 89 1007.0
20260508040509 45 282 0.0 2.0 0.00 0.00 0.00 89 1006.9
20260508040008 45 306 0.0 2.0 0.00 0.00 0.00 89 1006.9
20260508035507 45 186 1.0 4.0 0.00 0.00 0.00 89 1006.9
20260508035005 45 266 1.0 3.0 0.00 0.00 0.00 90 1006.8
20260508034504 45 330 1.0 3.0 0.00 0.00 0.00 89 1006.8
20260508034002 45 309 1.0 4.0 0.00 0.00 0.00 89 1006.7
20260508033501 45 324 1.0 3.0 0.00 0.00 0.00 90 1006.7
20260508033000 44 310 1.0 3.0 0.00 0.00 0.00 89 1006.7
20260508032459 44 300 1.0 3.0 0.00 0.00 0.00 89 1006.7
20260508031958 44 312 1.0 2.0 0.00 0.00 0.00 90 1006.6
20260508031456 45 306 1.0 3.0 0.00 0.00 0.00 90 1006.6
20260508030956 45 285 1.0 4.0 0.00 0.00 0.00 90 1006.6
20260508030454 45 264 1.0 3.0 0.00 0.00 0.00 89 1006.6
20260508025953 45 214 1.0 2.0 0.00 0.00 0.00 89 1006.5
20260508025453 45 84 1.0 3.0 0.00 0.00 0.00 89 1006.6
20260508024952 45 306 1.0 3.0 0.00 0.00 0.00 89 1006.6
20260508024450 45 324 1.0 4.0 0.00 0.00 0.00 89 1006.6
20260508023448 45 168 1.0 4.0 0.00 0.00 0.00 88 1006.6
20260508022947 45 266 2.0 4.0 0.00 0.00 0.00 88 1006.6
20260508022445 45 312 1.0 3.0 0.00 0.00 0.00 89 1006.5
20260508021945 45 234 1.0 2.0 0.00 0.00 0.00 88 1006.5
20260508021443 45 292 1.0 3.0 0.00 0.00 0.00 88 1006.4
20260508020942 45 204 1.0 3.0 0.00 0.00 0.00 88 1006.4
20260508020441 45 288 1.0 2.0 0.00 0.00 0.00 88 1006.5
20260508015939 45 228 0.0 2.0 0.00 0.00 0.00 88 1006.6
20260508015437 45 330 1.0 4.0 0.00 0.00 0.00 88 1006.6
20260508014937 45 156 0.0 1.0 0.00 0.00 0.00 88 1006.6
20260508014436 45 242 1.0 2.0 0.00 0.00 0.00 88 1006.5
20260508013935 45 300 1.0 4.0 0.00 0.00 0.00 88 1006.5
20260508013433 45 222 1.0 2.0 0.00 0.00 0.00 88 1006.5
20260508012932 45 354 1.0 2.0 0.00 0.00 0.00 88 1006.4
20260508012431 45 288 1.0 4.0 0.00 0.00 0.00 88 1006.4
20260508011930 46 276 1.0 2.0 0.00 0.00 0.00 88 1006.4
20260508011428 45 280 1.0 2.0 0.00 0.00 0.00 88 1006.4
20260508010927 45 276 1.0 4.0 0.00 0.00 0.00 88 1006.5
20260508010426 45 287 0.0 2.0 0.00 0.00 0.00 88 1006.5
20260508005924 45 294 1.0 2.0 0.00 0.00 0.00 88 1006.5
20260508005424 45 270 1.0 2.0 0.00 0.00 0.00 88 1006.4
20260508004923 45 306 1.0 3.0 0.00 0.00 0.00 88 1006.4
20260508004421 45 246 0.0 2.0 0.00 0.00 0.00 88 1006.4
20260508003921 45 234 0.0 3.0 0.00 0.00 0.00 88 1006.5
20260508003419 45 271 0.0 2.0 0.00 0.00 0.00 88 1006.5
20260508002918 46 270 0.0 2.0 0.00 0.00 0.00 88 1006.5
20260508002416 45 162 1.0 4.0 0.00 0.00 0.00 88 1006.5
20260508001916 45 192 1.0 2.0 0.00 0.00 0.00 87 1006.4
20260508001415 46 276 1.0 4.0 0.00 0.00 0.00 87 1006.5
20260508000914 46 330 1.0 3.0 0.00 0.00 0.00 88 1006.5
20260508000413 46 270 1.0 2.0 0.00 0.00 0.00 88 1006.4
20260507235912 46 230 0.0 2.0 0.00 0.00 0.00 87 1006.4
20260507235411 46 312 0.0 1.0 0.00 0.00 0.00 87 1006.4
20260507234909 46 276 1.0 3.0 0.00 0.00 0.00 87 1006.4
20260507234407 46 252 1.0 3.0 0.00 0.00 0.00 87 1006.4
20260507233906 46 276 0.0 4.0 0.00 0.00 0.00 87 1006.4
20260507233405 46 282 1.0 3.0 0.00 0.00 0.00 87 1006.4
20260507232904 46 150 1.0 2.0 0.00 0.00 0.00 87 1006.3
20260507232403 46 306 1.0 2.0 0.00 0.00 0.00 87 1006.4
20260507231902 46 306 1.0 2.0 0.00 0.00 0.00 87 1006.2
20260507231401 46 174 1.0 5.0 0.00 0.00 0.00 87 1006.3
20260507230900 46 298 1.0 2.0 0.00 0.00 0.00 87 1006.3
20260507230359 46 282 1.0 2.0 0.00 0.00 0.00 86 1006.3
20260507225858 46 36 1.0 3.0 0.00 0.00 0.00 86 1006.2
20260507225357 46 255 1.0 2.0 0.00 0.00 0.00 86 1006.2
20260507224856 46 279 1.0 4.0 0.00 0.00 0.00 86 1006.2
20260507224354 46 288 1.0 2.0 0.00 0.00 0.00 86 1006.1
20260507223853 46 282 1.0 2.0 0.00 0.00 0.00 86 1006.1
20260507223351 46 276 1.0 3.0 0.00 0.00 0.00 85 1006.2
20260507222850 46 281 1.0 2.0 0.00 0.00 0.00 85 1006.2
20260507222349 46 228 1.0 4.0 0.00 0.00 0.00 85 1006.2
20260507221848 46 294 2.0 4.0 0.00 0.00 0.00 85 1006.1
20260507221347 46 270 1.0 3.0 0.00 0.00 0.00 85 1006.0
20260507220845 46 276 1.0 3.0 0.00 0.00 0.00 85 1006.0
20260507220344 46 66 2.0 3.0 0.00 0.00 0.00 85 1006.0
20260507215843 46 282 2.0 3.0 0.00 0.00 0.00 85 1006.0
20260507215342 46 300 1.0 2.0 0.00 0.00 0.00 85 1006.1
20260507214841 46 60 1.0 2.0 0.00 0.00 0.00 85 1006.1
20260507214340 46 132 1.0 2.0 0.00 0.00 0.00 85 1006.1
20260507213839 46 186 2.0 3.0 0.00 0.00 0.00 85 1006.1
20260507213337 46 288 2.0 4.0 0.00 0.00 0.00 84 1006.0
20260507212836 46 282 1.0 2.0 0.00 0.00 0.00 84 1006.0
20260507212334 46 291 1.0 3.0 0.00 0.00 0.00 84 1006.1
20260507211832 46 282 1.0 3.0 0.00 0.00 0.00 84 1006.0
20260507211331 46 242 1.0 3.0 0.00 0.00 0.00 84 1005.9
20260507210830 46 264 1.0 2.0 0.00 0.00 0.00 83 1005.9
20260507210330 46 252 1.0 3.0 0.00 0.00 0.00 83 1005.8
20260507205829 46 225 1.0 2.0 0.00 0.00 0.00 83 1005.7
20260507205327 46 306 1.0 2.0 0.00 0.00 0.00 83 1005.7
20260507204826 46 336 2.0 4.0 0.00 0.00 0.00 83 1005.8
20260507204325 46 288 1.0 3.0 0.00 0.00 0.00 83 1005.8
20260507203824 46 66 2.0 4.0 0.00 0.00 0.00 83 1005.7
20260507203323 46 101 1.0 3.0 0.00 0.00 0.00 83 1005.8
20260507202822 46 342 1.0 3.0 0.00 0.00 0.00 82 1005.8
20260507202320 46 246 1.0 4.0 0.00 0.00 0.00 82 1005.8
20260507201820 46 298 1.0 3.0 0.00 0.00 0.00 82 1005.8
20260507201319 46 276 2.0 4.0 0.00 0.00 0.00 81 1005.8
20260507200818 46 318 2.0 4.0 0.00 0.00 0.00 81 1005.7
20260507200317 46 192 1.0 6.0 0.00 0.00 0.00 81 1005.7
20260507195816 47 291 2.0 4.0 0.00 0.00 0.00 82 1005.6
20260507195315 46 12 2.0 4.0 0.00 0.00 0.00 82 1005.5
20260507194814 47 318 2.0 3.0 0.00 0.00 0.00 81 1005.6
20260507194313 47 42 2.0 4.0 0.00 0.00 0.00 80 1005.5
20260507193812 47 6 2.0 4.0 0.00 0.00 0.00 80 1005.4
20260507193311 47 318 1.0 3.0 0.00 0.00 0.00 80 1005.4
20260507192809 47 300 1.0 3.0 0.00 0.00 0.00 79 1005.4
20260507192308 47 300 2.0 4.0 0.00 0.00 0.00 79 1005.3
20260507191807 47 299 2.0 4.0 0.00 0.00 0.00 78 1005.2
20260507191306 47 24 1.0 5.0 0.00 0.00 0.00 79 1005.1
20260507190805 47 174 1.0 4.0 0.00 0.00 0.00 79 1005.1
20260507190304 48 222 1.0 2.0 0.00 0.00 0.00 79 1005.1
20260507185803 48 12 0.0 2.0 0.00 0.00 0.00 79 1005.0
20260507185305 48 280 1.0 2.0 0.00 0.00 0.00 79 1005.1
20260507184801 48 240 1.0 3.0 0.00 0.00 0.00 79 1005.1
20260507184300 48 264 2.0 4.0 0.00 0.00 0.00 79 1004.9
20260507183759 48 300 2.0 3.0 0.00 0.00 0.00 79 1004.7
20260507183258 48 48 2.0 3.0 0.00 0.00 0.00 79 1004.7
20260507182756 48 264 2.0 4.0 0.00 0.00 0.00 78 1004.7
20260507182256 48 288 1.0 3.0 0.00 0.00 0.00 79 1004.7
20260507181755 48 276 2.0 5.0 0.00 0.00 0.00 79 1004.6
20260507181254 48 318 1.0 2.0 0.00 0.00 0.00 78 1004.4
20260507180752 48 266 1.0 4.0 0.00 0.00 0.00 78 1004.3
20260507180251 49 312 2.0 5.0 0.00 0.00 0.00 79 1004.3
20260507175750 49 276 1.0 2.0 0.00 0.00 0.00 80 1004.3
20260507175248 49 318 2.0 3.0 0.00 0.00 0.00 79 1004.3
20260507174747 49 54 2.0 3.0 0.00 0.00 0.00 78 1004.2
20260507174247 49 249 2.0 3.0 0.00 0.00 0.00 78 1004.1
20260507173746 49 312 1.0 5.0 0.00 0.00 0.00 78 1004.1
20260507173244 49 324 1.0 3.0 0.00 0.00 0.00 79 1004.1
20260507172743 49 354 2.0 4.0 0.00 0.00 0.00 79 1004.0
20260507172247 49 258 1.0 3.0 0.00 0.00 0.00 79 1003.9
20260507171741 49 261 1.0 4.0 0.00 0.00 0.00 78 1003.8
20260507171240 49 24 2.0 4.0 0.00 0.00 0.00 79 1003.6
20260507170739 49 282 2.0 4.0 0.00 0.00 0.00 79 1003.6
20260507170238 49 287 2.0 4.0 0.00 0.00 0.00 79 1003.6
20260507165736 49 342 2.0 4.0 0.00 0.00 0.00 78 1003.5
20260507165235 49 252 2.0 4.0 0.00 0.00 0.00 78 1003.5
20260507164734 49 90 2.0 4.0 0.00 0.00 0.00 78 1003.5
20260507164233 49 182 2.0 4.0 0.00 0.00 0.00 79 1003.4
20260507163732 49 258 2.0 4.0 0.00 0.00 0.00 79 1003.4
20260507163230 50 54 2.0 5.0 0.00 0.00 0.00 80 1003.5
20260507162730 50 264 2.0 4.0 0.00 0.00 0.00 79 1003.4
20260507162228 50 30 2.0 7.0 0.00 0.00 0.00 80 1003.5
20260507161727 49 214 2.0 4.0 0.00 0.00 0.00 79 1003.4
20260507161226 49 276 2.0 6.0 0.00 0.00 0.00 79 1003.4
20260507160724 50 240 2.0 4.0 0.00 0.00 0.00 79 1003.4
20260507160222 50 330 2.0 5.0 0.00 0.00 0.00 80 1003.5
20260507155722 50 248 3.0 5.0 0.00 0.00 0.00 80 1003.3
20260507155220 49 252 2.0 4.0 0.00 0.00 0.00 80 1003.3
20260507154719 50 336 2.0 4.0 0.00 0.00 0.00 81 1003.2
20260507154218 49 30 2.0 4.0 0.00 0.00 0.00 81 1003.4
20260507153717 50 114 2.0 4.0 0.00 0.00 0.00 81 1003.4
20260507153216 50 253 2.0 3.0 0.00 0.00 0.00 81 1003.4
20260507152715 50 60 2.0 4.0 0.00 0.00 0.00 80 1003.4
20260507152214 50 281 2.0 3.0 0.00 0.00 0.00 81 1003.5
20260507151713 50 300 2.0 5.0 0.00 0.00 0.00 82 1003.5
20260507151212 50 321 2.0 3.0 0.01 0.00 0.00 83 1003.5
20260507150711 50 282 2.0 3.0 0.01 0.00 0.00 85 1003.5
20260507150210 50 266 2.0 4.0 0.02 0.00 0.00 84 1003.5
20260507145708 50 258 2.0 5.0 0.01 0.00 0.00 84 1003.5
20260507145206 50 324 2.0 5.0 0.01 0.00 0.00 83 1003.4
20260507144705 50 354 3.0 7.0 0.00 0.00 0.00 79 1003.5
20260507144204 50 312 2.0 3.0 0.00 0.00 0.00 78 1003.5
20260507143703 50 303 2.0 4.0 0.00 0.00 0.00 79 1003.5
20260507143202 50 234 2.0 4.0 0.00 0.00 0.00 79 1003.5
20260507142701 50 247 2.0 4.0 0.00 0.00 0.00 78 1003.6
20260507142159 50 299 3.0 5.0 0.00 0.00 0.00 78 1003.5
20260507141658 50 24 2.0 4.0 0.00 0.00 0.00 79 1003.5
20260507141157 50 0 1.0 4.0 0.00 0.00 0.00 79 1003.4
20260507140656 50 288 2.0 5.0 0.00 0.00 0.00 79 1003.4
20260507140155 50 48 2.0 3.0 0.00 0.00 0.00 78 1003.3
20260507135655 50 312 2.0 4.0 0.00 0.00 0.00 78 1003.4
20260507135153 50 281 2.0 4.0 0.00 0.00 0.00 79 1003.3
20260507134653 50 342 2.0 4.0 0.00 0.00 0.00 80 1003.3
20260507134151 50 210 1.0 3.0 0.00 0.00 0.00 77 1003.3
20260507133651 50 288 1.0 3.0 0.00 0.00 0.00 79 1003.3
20260507133149 50 246 1.0 2.0 0.00 0.00 0.00 80 1003.2
20260507132647 50 204 1.0 3.0 0.00 0.00 0.00 80 1003.1
20260507132146 50 288 2.0 4.0 0.00 0.00 0.00 81 1003.1
20260507131645 50 246 2.0 3.0 0.00 0.00 0.00 80 1003.2
20260507131143 50 312 2.0 4.0 0.00 0.00 0.00 78 1003.1
20260507130642 50 249 2.0 4.0 0.00 0.00 0.00 79 1003.1
20260507130141 50 255 2.0 4.0 0.00 0.00 0.00 79 1003.1
20260507125640 50 235 2.0 4.0 0.00 0.00 0.00 79 1003.1
20260507125138 50 234 2.0 5.0 0.00 0.00 0.00 79 1003.1
20260507124637 50 0 2.0 5.0 0.00 0.00 0.00 79 1003.0
20260507124136 50 309 2.0 6.0 0.00 0.00 0.00 78 1003.0
20260507123635 50 84 2.0 5.0 0.00 0.00 0.00 79 1003.0
20260507123134 50 210 2.0 4.0 0.00 0.00 0.00 80 1003.0
20260507122633 50 342 2.0 4.0 0.00 0.00 0.00 77 1003.0
20260507122132 51 228 2.0 4.0 0.00 0.00 0.00 78 1002.9
20260507121631 51 186 2.0 4.0 0.00 0.00 0.00 78 1002.8
20260507121130 50 143 2.0 5.0 0.00 0.00 0.00 78 1002.7
20260507120629 50 300 2.0 4.0 0.00 0.00 0.00 78 1002.7
20260507120127 50 231 2.0 3.0 0.00 0.00 0.00 78 1002.7
20260507115626 50 309 1.0 2.0 0.00 0.00 0.00 79 1002.6
20260507115124 50 60 2.0 4.0 0.00 0.00 0.00 79 1002.7
20260507114623 50 306 2.0 3.0 0.00 0.00 0.00 79 1002.4
20260507114121 50 264 1.0 3.0 0.00 0.00 0.00 80 1002.4
20260507113621 50 258 2.0 3.0 0.00 0.00 0.00 79 1002.4
20260507113119 50 210 2.0 3.0 0.00 0.00 0.00 78 1002.4
20260507112617 50 336 3.0 5.0 0.00 0.00 0.00 81 1002.5
20260507112116 50 299 3.0 7.0 0.00 0.00 0.00 80 1002.4
20260507111616 50 316 2.0 4.0 0.00 0.00 0.00 81 1002.3
20260507111114 50 124 2.0 3.0 0.00 0.00 0.00 79 1002.2
20260507110612 50 154 2.0 3.0 0.00 0.00 0.00 80 1002.2
20260507110111 49 276 2.0 4.0 0.00 0.00 0.00 80 1002.0
20260507105611 50 336 2.0 4.0 0.00 0.00 0.00 81 1002.2
20260507105110 50 298 3.0 9.0 0.00 0.00 0.00 81 1002.2
20260507104103 49 281 3.0 5.0 0.00 0.00 0.00 81 1002.0
20260507103601 49 30 3.0 4.0 0.00 0.00 0.00 81 1002.0
20260507103101 49 306 3.0 5.0 0.00 0.00 0.00 83 1002.0
20260507102559 49 304 3.0 5.0 0.00 0.00 0.00 82 1002.0
20260507102058 49 282 4.0 7.0 0.00 0.00 0.00 82 1001.9
20260507101557 48 348 4.0 6.0 0.00 0.00 0.00 83 1002.1
20260507101056 49 316 2.0 6.0 0.00 0.00 0.00 82 1001.9
20260507100556 49 243 2.0 4.0 0.00 0.00 0.00 82 1001.7
20260507100054 49 300 3.0 5.0 0.00 0.00 0.00 83 1001.7
20260507095553 49 272 2.0 4.0 0.00 0.00 0.00 81 1001.6
20260507095052 49 318 2.0 3.0 0.00 0.00 0.00 83 1001.6
20260507094550 48 282 2.0 4.0 0.00 0.00 0.00 83 1001.6
20260507094049 48 297 2.0 5.0 0.00 0.00 0.00 85 1001.6
20260507093548 48 288 2.0 5.0 0.00 0.00 0.00 85 1001.6
20260507093048 48 230 2.0 5.0 0.00 0.00 0.00 86 1001.5
20260507092547 48 294 2.0 5.0 0.00 0.00 0.00 85 1001.5
20260507092045 48 318 2.0 4.0 0.00 0.00 0.00 86 1001.6
20260507091544 48 321 3.0 6.0 0.00 0.00 0.00 86 1001.5
20260507091043 48 330 3.0 5.0 0.00 0.00 0.00 86 1001.5
20260507090542 48 297 3.0 6.0 0.00 0.00 0.00 86 1001.4
20260507090041 48 330 2.0 5.0 0.00 0.00 0.00 87 1001.3
20260507085540 48 286 1.0 4.0 0.00 0.00 0.00 85 1001.2
20260507085039 48 224 2.0 3.0 0.00 0.00 0.00 84 1001.2
20260507084537 48 316 2.0 5.0 0.00 0.00 0.00 84 1001.1
20260507083303 48 260 2.0 3.0 0.00 0.00 0.00 86 1000.9
20260507082803 48 246 1.0 2.0 0.00 0.00 0.00 87 1000.8
20260507081826 47 286 2.0 4.0 0.00 0.00 0.00 88 1000.6
20260507081324 47 42 2.0 4.0 0.00 0.00 0.00 88 1000.6
20260507080824 47 254 2.0 3.0 0.00 0.00 0.00 89 1000.5
20260507080322 47 270 2.0 4.0 0.00 0.00 0.00 88 1000.6
20260507075821 46 270 2.0 4.0 0.00 0.00 0.00 89 1000.5
20260507075320 46 304 2.0 4.0 0.00 0.00 0.00 89 1000.5
20260507074819 46 242 2.0 3.0 0.00 0.00 0.00 90 1000.4
20260507074318 46 304 2.0 4.0 0.00 0.00 0.00 90 1000.3
20260507073817 46 276 2.0 5.0 0.00 0.00 0.00 90 1000.2
20260507073316 46 294 2.0 5.0 0.00 0.00 0.00 91 1000.2
20260507072325 46 306 2.0 4.0 0.00 0.00 0.00 91 1000.0
20260507071824 46 354 3.0 4.0 0.00 0.00 0.00 90 999.9
20260507071323 46 60 3.0 6.0 0.00 0.00 0.00 91 999.9
20260507070821 46 281 2.0 5.0 0.00 0.00 0.00 90 999.8
20260507070320 46 271 3.0 5.0 0.00 0.00 0.00 90 999.9
20260507065819 46 236 2.0 5.0 0.00 0.00 0.00 90 999.9
20260507065318 46 240 2.0 4.0 0.00 0.00 0.00 91 999.9
20260507064426 46 196 2.0 4.0 0.00 0.00 0.00 91 999.9
20260507063926 46 300 2.0 5.0 0.00 0.00 0.00 90 999.9
20260507063424 46 132 3.0 6.0 0.00 0.00 0.00 90 999.8
20260507062642 46 318 2.0 6.0 0.00 0.00 0.00 91 999.9
20260507062141 46 253 2.0 7.0 0.00 0.00 0.00 92 999.8
20260507061639 46 281 2.0 6.0 0.00 0.00 0.00 91 999.8
20260507061138 46 312 2.0 4.0 0.00 0.00 0.00 92 999.6
20260507060637 46 30 2.0 3.0 0.00 0.00 0.00 91 999.6
20260507060135 46 294 2.0 4.0 0.00 0.00 0.00 91 999.6
20260507055634 46 261 2.0 6.0 0.00 0.00 0.00 91 999.5
20260507055133 46 266 2.0 4.0 0.00 0.00 0.00 92 999.5
20260507054632 46 60 2.0 4.0 0.00 0.00 0.00 91 999.4
20260507054131 46 330 1.0 2.0 0.00 0.00 0.00 92 999.2
20260507053445 46 272 2.0 4.0 0.00 0.00 0.00 92 999.3
20260507052944 45 24 2.0 5.0 0.00 0.00 0.00 92 999.2
20260507052443 45 312 2.0 4.0 0.00 0.00 0.00 92 999.2
20260507051942 45 240 1.0 3.0 0.00 0.00 0.00 92 999.1
20260507051000 45 270 1.0 4.0 0.00 0.00 0.00 93 999.1
20260507050458 45 234 1.0 4.0 0.00 0.00 0.00 93 998.9
20260507045957 45 306 2.0 4.0 0.00 0.00 0.00 92 998.8
20260507045455 45 265 2.0 4.0 0.00 0.00 0.00 93 998.7
20260507044954 45 282 2.0 3.0 0.00 0.00 0.00 92 998.6
20260507044452 45 285 2.0 4.0 0.00 0.00 0.00 92 998.7
20260507043951 45 240 2.0 4.0 0.00 0.00 0.00 93 998.6